Location: Carnoy
(49.9849°N, 2.7558°E)
Time: 21:29:02
(UTC+00:00)

H-2A R/B - Pass Details

Date: 24 January 2020
Orbit: 734 x 836 km, 98.2° (Epoch: 18 February)

Event Time Altitude Azimuth Distance (km) Brightness Sun altitude
Exits shadow 19:30:16 48° 342° (NNW) 1,001 2.6 -28.8°
Drops below altitude 10° 19:33:57 10° 345° (NNW) 2,339 4.7 -29.4°
Sets 19:36:19 0° 346° (NNW) 3,288 5.5 -29.8°
